ONEWEB-0066, 45424

Orbit data source: Space-Track

ONEWEB-0066, 45424 is a payload satellite owned by One Web (UK) in LEO that was launched on Sat, 21 Mar 2020 UTC via a SOYUZ-2-1B launch vehicle from the Tyuratam Missile And Space Complex (TTMTR). Payload-class satellites include a variety of spacecraft equipped with specific instruments for various scientific and technological missions. These include communications satellites like Starlink; space stations such as the ISS; scientific satellites like the Hubble; Earth observation satellites from companies like Planet Labs, Umbra, and HawkEye 360; GPS; miniature CubeSats for education and research; and military/defense satellites.

Loading next visibility...
Identifier
45424, 2020-020A
Orbit
LEO
Country
Flag of UKUK
Related business
Manufacturer
One Web
Mission
Operational Commercial Communications
Bus & Motor
ARROW, Unknown motor
Mass
148 kg wet, ~140 kg dry
Launch date (UTC)
2020-03-21 (6 years ago)
Launch vehicle
SOYUZ-2-1B
Launch site
Tyuratam Missile And Space Complex (TTMTR)
Object type
Payload
Rocket body
Debris
Shape & HBR
Trap Box + 2 Pan, 6.7 m
Radar Cross Section
3.464 m², Large (>1 m²)

Expand to show TLE details & history
Last TLE update: 8 hours ago

TLE from 8 hours ago
0 ONEWEB-0066
1 45424U 20020A   26037.52662344 -.00000134  00000-0 -41314-3 0  9999
2 45424  87.8827  47.0624 0001664  87.0072 273.1246 13.11418834285559
Epoch: 2026-02-06T12:38Z
TLE epoch observation values (Epoch: 2026-02-06T12:38:20.265Z)
Latitude
-0.00004°
Longitude
80.81473°
Altitude
1,220.496 km
Speed
7.244 km/s
True Right ascension
03h 08m 14s
True Declination
0° 00' 00"
Sunlit
Object was in daylight at epoch
Visualization orbit readout
Latitude
Unknown
Longitude
Unknown
Altitude
Unknown
Speed
Unknown
Apparent Right ascension
Unknown
Apparent Declination
Unknown
Sunlit
N/A
Visualization observer readout
Local Sidereal Time
22:24:11
Azimuth
Unknown
Elevation
Unknown
Doppler factor
Unknown
Orbital elements
Apogee altitude
1,216.057 km
Perigee altitude
1,213.53 km
Semi-major axis
7,592.931 km
Eccentricity
0.00017
Inclination
87.8827°
RAAN
47.0624°
Arg. of periapsis
87.0072°
True anomaly
273.10556°
Mean anomaly
273.1246°
Eccentric anomaly
273.11508°
Mean motion
3.28042 °/min
Orbital period
109.74 mins
BSTAR
-0.00041314
Loading maneuver chart data...
Computing Atmospheric mass density...
Loading historical data...
Loading historical data...
Loading historical data...
Loading historical data...
Loading historical data...
Loading historical data...
Loading historical data...

Documentation

Showing up to 5 results
|